Location: Vista Encantada
(35.1109°N, 106.5681°W)
Time: 21:19:51
(UTC+00:00)

X-37B - Pass Details

Date: 18 September 2021
Orbit: 385 x 389 km, 45.0° (Epoch: 13 October)

Event Time Altitude Azimuth Distance (km) Brightness Sun altitude
Exits shadow 11:41:29 - 189° (S) 1,525 3.4 -15.0°
Reaches altitude 10° 11:41:54 10° 184° (S) 1,402 3.2 -14.9°
Maximum altitude 11:44:09 18° 138° (SE) 1,024 3.1 -14.5°
Drops below altitude 10° 11:46:25 10° 92° (E) 1,410 4.7 -14.0°
Sets 11:48:54 0° 73° (ENE) 2,268 6.5 -13.5°
